This demonstration page uses our WeatherBlox Daily Observations layout. Learn more.

Left ArrowRight Arrow

34.16533, -84.80231

Hourly Observations for July 7, 2017

Temp ( °F °C ) Dew Point ( °F °C ) Humidity (%) Winds ( mph kmh ) Pressure ( in mb ) Visibility ( mi km ) Precip ( " mm )
12:53 am 00:53 Clear 68 20 68 20 100 100 Calm 30.07 1018 10 16 0.00 0.00
1:53 am 01:53 Clear 68 20 68 20 100 100 Calm 30.05 1018 10 16 0.00 0.00
2:53 am 02:53 Mostly Cloudy 68 20 68 20 100 100 Calm 30.04 1017 10 16 0.00 0.00
3:53 am 03:53 Clear 67 19.4 67 19.4 100 100 Calm 30.04 1017 10 16 0.00 0.00
4:53 am 04:53 Partly Cloudy 68 20 68 20 100 100 Calm 30.03 1017 10 16 0.00 0.00
5:53 am 05:53 Clear 68 20 68 20 100 100 Calm 30.04 1017 10 16 0.00 0.00
6:53 am 06:53 Sunny 67 19.4 67 19.4 100 100 Calm 30.05 1018 10 16 0.00 0.00
7:53 am 07:53 Mostly Sunny 69 20.6 69 20.6 100 100 Calm 30.06 1018 10 16 0.00 0.00
8:33 am 08:33 Mostly Cloudy with Thunderstorms 73 22.8 73 22.8 100 100 Calm 30.06 1018 10 16 0.00 0.00
8:53 am 08:53 Mostly Cloudy with Thunderstorms 73 22.8 73 22.8 100 100 Calm 30.07 1018 10 16 0.02 0.51
9:01 am 09:01 Partly Cloudy 72 22.2 72 22.2 100 100 Calm 30.09 1019 10 16 0.00 0.00
9:53 am 09:53 Partly Cloudy 76 24.4 75 23.9 97 97 VRB 3 6 30.07 1018 10 16 0.00 0.00
10:24 am 10:24 Mostly Cloudy 78 25.6 75 23.9 90 90 Calm 30.06 1018 10 16 0.00 0.00
10:53 am 10:53 Mostly Cloudy 81 27.2 76 24.4 85 85 Calm 30.06 1018 10 16 0.00 0.00
11:20 am 11:20 Partly Cloudy 82 27.8 77 25 85 85 VRB 5 7 30.03 1017 10 16 0.00 0.00
11:53 am 11:53 Mostly Cloudy 83 28.3 77 25 82 82 VRB 6 9 30.06 1018 10 16 0.00 0.00
12:18 pm 12:18 Mostly Cloudy 85 29.4 76 24.4 75 75 Calm 30.03 1017 10 16 0.00 0.00
12:53 pm 12:53 Mostly Cloudy 86 30 75 23.9 70 70 VRB 6 9 30.04 1017 10 16 0.00 0.00
1:53 pm 13:53 Mostly Cloudy 86 30 75 23.9 70 70 VRB 3 6 30.02 1017 10 16 0.00 0.00
2:01 pm 14:01 Mostly Cloudy with Nearby Thunderstorms 86 30 75 23.9 70 70 Calm 30.00 1016 10 16 0.00 0.00
2:20 pm 14:20 Partly Cloudy 88 31.1 75 23.9 66 66 VRB 3 6 30.00 1016 10 16 0.00 0.00
2:31 pm 14:31 Mostly Cloudy with Thunderstorms 85 29.4 75 23.9 72 72 VRB 7 11 30.00 1016 10 16 0.00 0.00
2:46 pm 14:46 Mostly Cloudy with Nearby Thunderstorms 84 28.9 75 23.9 74 74 Calm 30.00 1016 10 16 0.00 0.00
2:53 pm 14:53 Mostly Cloudy with Nearby Thunderstorms 84 28.9 76 24.4 77 77 Calm 29.99 1016 10 16 0.00 0.00
3:40 pm 15:40 Mostly Cloudy with Thunderstorms 84 28.9 77 25 80 80 undefined N/A 29.97 1015 10 16 0.00 0.00
3:53 pm 15:53 Cloudy with Thunderstorms 82 27.8 75 23.9 79 79 VRB 5 7 29.98 1015 10 16 0.00 0.00
4:38 pm 16:38 Cloudy with Nearby Thunderstorms 80 26.7 73 22.8 79 79 VRB 3 6 30.00 1016 10 16 0.03 0.76
4:51 pm 16:51 Mostly Sunny 81 27 72 22 74 74 VRB 3 6 30.00 1016 10 16 0.03 0.76
4:53 pm 16:53 Mostly Sunny 81 27.2 72 22.2 74 74 VRB 3 6 29.98 1015 10 16 0.03 0.76
5:53 pm 17:53 Sunny 85 29.4 75 23.9 72 72 Calm 29.94 1014 10 16 0.00 0.00
6:49 pm 18:49 Sunny with Nearby Thunderstorms 84 29 75 24 74 74 Calm 29.94 1014 10 16 0.00 0.00
6:53 pm 18:53 Sunny with Nearby Thunderstorms 84 28.9 76 24.4 77 77 Calm 29.95 1014 10 16 0.00 0.00
7:07 pm 19:07 Sunny 84 28.9 76 24.4 77 77 Calm 29.97 1015 10 16 0.00 0.00
7:53 pm 19:53 Mostly Sunny 81 27.2 73 22.8 77 77 VRB 6 9 29.96 1015 10 16 0.00 0.00
8:53 pm 20:53 Partly Cloudy 78 25.6 72 22.2 82 82 S 5 7 29.99 1016 10 16 0.00 0.00
9:53 pm 21:53 Partly Cloudy 77 25 71 21.7 82 82 VRB 5 7 30.00 1016 10 16 0.00 0.00
10:53 pm 22:53 Clear 75 23.9 69 20.6 82 82 Calm 30.02 1017 10 16 0.00 0.00
11:53 pm 23:53 Clear 72 22.2 70 21.1 94 94 Calm 29.99 1016 10 16 0.00 0.00

Powered by AerisWeather